Hourly Data Report for September 09, 2017

All times are specified in Local Standard Time (LST). Add 1 hour to adjust for Daylight Saving Time where and when it is observed.

TORONTO INTL A
ONTARIO

43°40'36.000" N
79°37'50.000" W
173.40 m
6158731
71624
YYZ

Download Data

Hourly Data (September 2017)
Hourly Data Report for September 9, 2017
Temp Definition
°C
Dew Point Temp Definition
°C
Rel Hum Definition
%
Wind Dir Definition
10's deg

Wind Spd Definition
km/h
Visibility Definition
km
Stn Press Definition
kPa
Hmdx Definition


Wind Chill Definition


Weather Definition


TIME
00:00 Legend Double Dagger 9.9 7.3 84 35 17 24.1 100.62     LegendNANA
01:00 Legend Double Dagger 9.5 6.8 83 35 16 24.1 100.66     Clear
02:00 Legend Double Dagger 9.0 6.2 83 35 16 24.1 100.70     LegendNANA
03:00 Legend Double Dagger 8.3 5.9 85 1 10 24.1 100.72     LegendNANA
04:00 Legend Double Dagger 7.9 5.7 86 36 13 24.1 100.76     Clear
05:00 Legend Double Dagger 8.0 5.4 84 35 19 24.1 100.83     LegendNANA
06:00 Legend Double Dagger 7.7 4.9 82 35 20 24.1 100.89     LegendNANA
07:00 Legend Double Dagger 8.7 4.8 77 34 20 24.1 100.95     Clear
08:00 Legend Double Dagger 10.6 5.6 71 36 15 24.1 100.96     LegendNANA
09:00 Legend Double Dagger 13.1 6.4 64 2 15 24.1 101.01     LegendNANA
10:00 Legend Double Dagger 14.2 5.0 54 36 13 24.1 101.02     Mostly Cloudy
11:00 Legend Double Dagger 15.2 5.5 52 1 14 24.1 101.03     LegendNANA
12:00 Legend Double Dagger 16.3 5.0 47 2 21 24.1 101.00     LegendNANA
13:00 Legend Double Dagger 16.9 5.0 45 4 11 24.1 100.98     Mainly Clear
14:00 Legend Double Dagger 17.6 5.2 44 19 4 24.1 100.91     LegendNANA
15:00 Legend Double Dagger 17.4 5.1 44 36 4 24.1 100.87     LegendNANA
16:00 Legend Double Dagger 17.8 6.0 45 34 15 24.1 100.84     Mainly Clear
17:00 Legend Double Dagger 17.2 5.3 45 1 14 24.1 100.84     LegendNANA
18:00 Legend Double Dagger 16.3 4.9 46 36 19 24.1 100.84     LegendNANA
19:00 Legend Double Dagger 14.5 5.5 54 35 23 24.1 100.88     Mainly Clear
20:00 Legend Double Dagger 13.0 5.9 62 2 25 24.1 100.96     LegendNANA
21:00 Legend Double Dagger 12.2 5.7 64 36 19 24.1 100.98     LegendNANA
22:00 Legend Double Dagger 11.1 5.5 68 1 17 24.1 101.00     Clear
23:00 Legend Double Dagger 10.1 5.5 73 35 10 24.1 100.98     LegendNANA

Notes on Data Quality.

Legend

  • E = Estimated
  • M = Missing
  • NA = Not Available
  • ‡ = Partner data that is not subject to review by the National Climate Archives
Date modified: